Highspire, PA

9:31 AM EDT on October 01, 2016 (GMT -0400)
Harrisburg International

Weather History for KMDT - March, 2013

Change the Weather History Date:

Saturday, March 23, 2013

  Actual Average Record
Temperature  
Mean Temperature 37 °F 44 °F  
Max Temperature 46 °F 53 °F 79 °F (2012)
Min Temperature 27 °F 35 °F 14 °F (1934)
Degree Days  
Heating Degree Days 28 21  
Month to date heating degree days 618 567  
Since 1 July heating degree days 4409 4555  
Cooling Degree Days 0 0  
Month to date cooling degree days 0 0  
Year to date cooling degree days 0 0  
Moisture  
Dew Point 20 °F    
Average Humidity 52    
Maximum Humidity 69    
Minimum Humidity 34    
Precipitation  
Precipitation 0.00 in 0.11 in 1.92 in (1903)
Month to date precipitation 1.95 2.45  
Year to date precipitation 6.90 7.72  
Snow  
Snow 0.00 in 0.10 in 3.00 in (1896)
Month to date snowfall 2.3 4.5  
Since 1 July snowfall 15.6 29.5  
Snow Depth 0.00 in    
Sea Level Pressure  
Sea Level Pressure 29.97 in    
Wind  
Wind Speed 12 mph (NW)    
Max Wind Speed 26 mph    
Max Gust Speed 32 mph    
Visibility 10 miles    
Events      
T = Trace of Precipitation, MM = Missing Value Source: NWS Daily Summary

Daily Weather History Graph

Daily Weather History Graph

Search for Another Location

Airport or City:

Trip Planner

Search our weather history database for the weather conditions in past years. The results will help you decide how hot, cold, wet, or windy it might be!

Date:

Astronomy

Mar. 23, 2013 Rise Set
Actual Time 7:05 AM EDT 7:22 PM EDT
Civil Twilight 6:38 AM EDT 7:49 PM EDT
Nautical Twilight 6:06 AM EDT 8:21 PM EDT
Astronomical Twilight 5:33 AM EDT 8:54 PM EDT
Moon 3:46 PM EDT (3/23) 4:40 AM EDT (3/23)
Length of Visible Light 13h 11m
Length of Day
12h 17m
Waxing Gibbous, 85% of the Moon is Illuminated
Mar 23
Waxing Gibbous
Mar 27
Full
Apr 3
Last Quarter
Apr 10
New
Apr 18
First Quarter

Hourly Weather History & Observations

Time (EDT) Temp. Windchill Dew Point Humidity Pressure Visibility Wind Dir Wind Speed Gust Speed Precip Events Conditions
12:56 AM 32.0 °F 24.2 °F 19.9 °F 61% 29.99 in 10.0 mi WNW 9.2 mph - N/A   Scattered Clouds
1:56 AM 28.9 °F 21.9 °F 19.0 °F 67% 29.98 in 10.0 mi NW 6.9 mph - N/A   Clear
2:56 AM 28.9 °F 21.1 °F 19.0 °F 67% 29.97 in 10.0 mi NW 8.1 mph - N/A   Partly Cloudy
3:56 AM 28.9 °F 21.9 °F 19.0 °F 67% 29.96 in 10.0 mi NW 6.9 mph - N/A   Partly Cloudy
4:56 AM 28.9 °F 21.1 °F 19.0 °F 67% 29.97 in 10.0 mi NNW 8.1 mph - N/A   Partly Cloudy
5:56 AM 32.0 °F 24.8 °F 19.0 °F 59% 29.98 in 10.0 mi NW 8.1 mph - N/A   Mostly Cloudy
6:56 AM 30.9 °F 22.2 °F 18.0 °F 59% 29.98 in 10.0 mi NNW 10.4 mph 18.4 mph N/A   Scattered Clouds
7:56 AM 33.1 °F - 19.9 °F 59% 29.99 in 10.0 mi Calm Calm - N/A   Mostly Cloudy
8:56 AM 35.1 °F 26.9 °F 21.0 °F 57% 29.99 in 10.0 mi NW 11.5 mph - N/A   Mostly Cloudy
9:56 AM 37.9 °F 28.9 °F 19.9 °F 48% 29.99 in 10.0 mi NW 16.1 mph - N/A   Scattered Clouds
10:56 AM 37.9 °F 28.9 °F 21.0 °F 51% 30.00 in 10.0 mi WNW 16.1 mph 24.2 mph N/A   Mostly Cloudy
11:56 AM 41.0 °F 32.8 °F 21.9 °F 47% 29.99 in 10.0 mi WNW 16.1 mph 23.0 mph N/A   Mostly Cloudy
12:56 PM 42.1 °F 34.5 °F 19.9 °F 41% 29.97 in 10.0 mi WNW 15.0 mph 21.9 mph N/A   Scattered Clouds
1:56 PM 44.1 °F 37.4 °F 19.9 °F 38% 29.95 in 10.0 mi NW 13.8 mph 25.3 mph N/A   Scattered Clouds
2:56 PM 45.0 °F 37.4 °F 21.0 °F 39% 29.94 in 10.0 mi WNW 18.4 mph 24.2 mph N/A   Scattered Clouds
3:56 PM 46.0 °F 38.8 °F 19.9 °F 35% 29.94 in 10.0 mi NNW 18.4 mph 24.2 mph N/A   Scattered Clouds
4:56 PM 45.0 °F 36.9 °F 19.0 °F 36% 29.93 in 10.0 mi NW 20.7 mph 32.2 mph N/A   Scattered Clouds
5:56 PM 44.1 °F 36.8 °F 19.0 °F 37% 29.94 in 10.0 mi NNW 16.1 mph 27.6 mph N/A   Partly Cloudy
6:56 PM 41.0 °F 32.2 °F 18.0 °F 40% 29.96 in 10.0 mi NNW 18.4 mph 26.5 mph N/A   Partly Cloudy
7:56 PM 39.0 °F 31.4 °F 18.0 °F 43% 29.98 in 10.0 mi NNW 12.7 mph - N/A   Partly Cloudy
8:56 PM 37.0 °F 29.8 °F 18.0 °F 46% 29.99 in 10.0 mi NW 10.4 mph 19.6 mph N/A   Clear
9:56 PM 36.0 °F 27.5 °F 21.0 °F 55% 30.00 in 10.0 mi NW 12.7 mph - N/A   Clear
10:56 PM 34.0 °F 27.2 °F 19.9 °F 56% 30.00 in 10.0 mi WNW 8.1 mph - N/A   Clear
11:56 PM 33.1 °F 26.1 °F 21.0 °F 61% 30.00 in 10.0 mi WNW 8.1 mph - N/A   Clear